Location: Eschenbach
(49.7554°N, 11.8331°E)
Time: 00:35:49
(UTC+00:00)

Daily predictions for brighter satellites

Satellite Brightness Start Highest point End
(mag) Time Altitude Azimuth Time Altitude Azimuth Time Altitude Azimuth
CENTAUR R/B 4.4 02:29:13 29° NNE 02:29:13 29° NNE 02:35:13 10° ENE
Cosmos 2227 Rocket 4.3 02:52:36 21° ESE 02:52:36 21° ESE 02:54:39 10° ESE
Lacrosse 5 rocket 3.6 03:35:14 26° ENE 03:35:14 26° ENE 03:37:15 10° ENE
USA 229 DEB 4.3 03:43:52 43° N 03:43:52 43° N 03:49:23 10° NE
USA 229 4.3 03:43:58 43° N 03:43:58 43° N 03:49:29 10° NE
Cosmos 44 Rocket 4.5 03:45:42 38° ENE 03:45:42 38° ENE 03:49:21 10° ESE
NOSS 3-1 (A) 4.0 03:49:58 48° N 03:49:58 48° N 03:55:22 10° NE
Cosmos 2369 Rocket 4.4 03:52:45 13° N 03:52:45 13° N 03:53:45 10° N
Cosmos 1697 Rocket 4.4 03:47:31 10° SSE 03:52:21 31° ESE 03:57:13 10° NE
ATLAS 3B R/B 3.9 03:50:54 27° N 03:52:53 31° NNE 03:58:49 10° E
Okean O Rocket 4.5 03:50:48 10° NE 03:53:45 17° E 03:56:42 10° SE
NOSS 3-2 (A) 4.4 03:55:57 38° NNW 03:58:49 58° NE 04:06:53 10° ESE
USA 215 3.2 03:57:24 10° SE 04:03:51 61° SW 04:03:57 61° SW
Cosmos 2074 Rocket 3.8 04:00:38 10° N 04:06:56 87° W 04:13:11 10° S
Cosmos 2082 3.7 04:07:05 68° N 04:07:47 81° ENE 04:13:29 10° SSE
CZ-2C R/B 4.2 04:10:01 10° N 04:11:37 21° N 04:11:37 21° N
Meteor 2-15 4.3 04:19:45 63° W 04:19:57 63° WNW 04:26:06 10° N
CENTAUR R/B 3.7 04:16:25 26° NNW 04:20:46 50° NE 04:29:04 10° ESE
Cosmos 2297 Rocket 2.9 04:23:30 39° SSW 04:23:30 39° SSW 04:27:22 10° S
Cosmos 1470 3.4 04:19:42 10° S 04:23:36 57° E 04:27:32 10° NNE
APEX 4.3 04:27:03 36° NNE 04:27:03 36° NNE 04:29:45 10° NNE
STARLINK-29 4.4 04:30:23 37° NE 04:30:23 37° NE 04:32:46 10° ENE
STARLINK-52 4.4 04:30:30 37° NE 04:30:30 37° NE 04:32:52 10° ENE
Cosmos 2227 Rocket 2.7 04:34:29 41° SW 04:34:29 41° SW 04:38:51 10° S
USA 238 DEB 3.8 04:29:55 32° NW 04:33:37 81° NE 04:41:02 10° SE
USA 238 3.8 04:30:01 32° NW 04:33:43 81° NE 04:41:08 10° SE
ALOS 2.5 04:29:21 10° NNE 04:34:02 69° ESE 04:38:40 10° S
EXPRESS MD2 4.1 04:36:29 33° SE 04:36:29 33° SE 04:38:20 10° E
ADEOS Rocket 3.8 04:31:58 10° SE 04:37:08 44° ENE 04:42:27 10° N
Cosmos 2341 Rocket 4.4 04:35:04 10° N 04:41:22 65° ENE 04:47:33 10° SSE
COSMO-SKYMED 1 3.0 04:38:01 10° S 04:41:17 44° SSW 04:41:17 44° SSW
Cosmos 2263 Rocket 3.3 04:39:11 14° NNW 04:43:45 40° NE 04:49:02 10° ESE
Cosmos 2278 4.2 04:45:20 10° SSW 04:50:57 63° ESE 04:56:37 10° NE
SL-4 R/B 1.5 04:51:23 86° WSW 04:51:26 87° SSW 04:54:54 10° ESE
NOSS 2-2 (D) 4.4 04:50:10 11° SSW 04:53:25 42° ESE 04:57:17 10° NE
STARLINK-43 3.3 04:54:31 62° SW 04:55:04 80° SSE 04:58:48 10° ENE
BREEZE M DEB (TANK) 4.4 04:46:47 26° W 04:57:40 89° S 05:02:46 10° E
Cosmos 1656 3.6 04:55:44 29° WSW 04:58:22 57° WNW 05:03:47 10° NNE
Cosmos 2369 3.7 04:52:38 10° SSW 04:58:22 89° WNW 05:04:10 10° NNE
NOSS 7 (D) 4.4 04:58:49 56° NNE 04:59:04 59° NE 05:02:15 10° SE
PAYLOAD B 4.3 04:55:28 10° NNE 05:01:07 86° ESE 05:06:45 10° SSW
Nadezhda 1 Rocket 3.9 04:57:07 10° SSW 05:03:08 63° WNW 05:09:11 10° N
NOSS 8 (E) 4.0 05:03:00 65° SW 05:03:24 89° NNW 05:06:31 10° NE
STARLINK-80 3.9 05:01:50 29° SW 05:03:30 57° SSE 05:07:13 10° ENE
Cosmos 1538 Rocket 4.2 04:58:39 10° SSW 05:03:59 75° ESE 05:09:18 10° NNE
Abrixas rocket 2.0 05:05:22 67° SSW 05:05:31 69° S 05:08:32 10° E
MOS 1-B 4.2 05:02:16 10° NNE 05:08:02 72° WNW 05:13:48 10° SSW
Orbus 7S? 3.2 05:07:30 45° NW 05:08:28 89° NE 05:14:05 10° SE
CZ-3 R/B 4.2 04:57:28 10° WSW 05:08:34 20° SSW 05:13:53 10° SSE
METEOR-M 4.1 05:05:34 10° N 05:10:53 65° WNW 05:16:10 10° SSW
Meteor 1-21 Rocket 4.2 05:06:14 10° NNW 05:12:02 68° W 05:17:53 10° S
Lacrosse 5 rocket 2.2 05:10:54 32° NW 05:12:13 40° NNW 05:16:29 10° NE
CZ-4B R/B 3.3 05:06:54 10° NNE 05:12:33 81° ESE 05:18:03 10° SSW
H-2A R/B 3.9 05:11:10 10° NNE 05:14:58 46° E 05:18:44 10° S
Cosmos 1758 3.7 05:13:19 10° SW 05:17:06 40° WNW 05:20:54 10° N
Cosmos 2218 Rocket 4.2 05:12:19 10° N 05:18:46 76° E 05:25:08 10° SSE
Cosmos 1602 Rocket 4.5 05:21:44 26° W 05:21:44 26° W 05:24:59 10° SW
NOAA 6 3.9 05:18:35 10° NNE 05:23:47 76° WNW 05:28:58 10° SSW
Cosmos 1953 2.3 05:21:20 10° SSW 05:25:19 57° WNW 05:29:21 10° N
Timation 1 Rocket 4.5 05:19:29 11° NNW 05:25:23 79° ENE 05:31:25 10° SE
NOSS 3-2 (C) 4.0 05:19:37 16° NW 05:25:51 85° SW 05:34:13 10° SE
Cosmos 44 Rocket 3.8 05:24:26 26° WNW 05:26:22 37° WSW 05:30:43 10° S
Cosmos 1980 Rocket 2.3 05:20:54 10° SSW 05:26:36 84° ESE 05:32:19 10° NNE
Cosmos 2154 Rocket 4.4 05:21:11 10° NNW 05:26:50 38° W 05:32:28 10° SSW
Cosmos 1703 3.4 05:22:52 10° N 05:26:52 78° E 05:30:49 10° SSE
Cosmos 1908 4.1 05:26:22 10° S 05:30:11 53° E 05:34:02 10° NNE
Cosmos 2228 3.0 05:25:57 10° S 05:30:22 89° WSW 05:34:48 10° N
FENGYUN 3A 3.9 05:25:22 10° N 05:30:31 47° WNW 05:35:39 10° SW
Okean O Rocket 1.6 05:26:06 10° N 05:30:32 62° WNW 05:34:55 10° SSW
NOSS 2-2 (C) 3.1 05:28:14 10° SW 05:31:52 87° NW 05:36:08 10° NE
Cosmos 1953 Rocket 3.5 05:27:57 10° NNW 05:32:25 73° W 05:36:49 10° S
SMAP 3.5 05:30:58 10° NNE 05:35:38 66° ESE 05:40:16 10° S
Cosmos 1697 Rocket 2.8 05:30:37 10° SW 05:36:04 52° NW 05:41:35 10° NNE
Envisat 4.3 05:32:07 10° NNE 05:36:59 43° E 05:41:49 10° S
Cosmos 1758 Rocket 4.0 05:33:50 10° NNW 05:37:54 39° W 05:41:57 10° SSW
Cosmos 1680 Rocket 4.4 05:33:40 10° S 05:38:49 53° ESE 05:44:00 10° NNE
Cosmos 1371 Rocket 4.5 05:34:10 10° NNW 05:39:25 63° ENE 05:44:41 10° SE
Cosmos 2227 4.2 05:33:48 10° NNW 05:39:28 74° WSW 05:45:05 10° SSE
NOSS 2-2 (E) 3.3 05:39:35 10° SW 05:43:15 60° NW 05:47:37 10° NE
ATLAS 3B R/B 2.8 05:38:09 11° NW 05:44:34 77° NE 05:51:28 10° SE
CZ-2C R/B 4.3 05:42:13 10° ESE 05:46:46 31° ENE 05:51:26 10° N
Meteor 2-10 4.1 05:42:58 10° SSW 05:48:34 73° WNW 05:53:59 10° N
Cosmos 1726 2.2 05:45:50 10° SSW 05:49:26 52° WNW 05:53:03 10° N
NOSS 3-2 (A) 4.3 05:43:20 13° NW 05:49:52 51° WSW 05:57:51 10° SSE
STARLINK-26 4.0 05:46:42 10° SW 05:50:09 52° SSE 05:53:36 10° ENE
Cosmos 1959 Rocket 4.4 05:45:53 10° NNW 05:51:56 67° W 05:57:59 10° S
NOSS 8 (H) 4.4 05:49:46 10° WSW 05:52:45 46° NW 05:55:52 10° NE
Genesis I 3.5 05:49:34 12° NW 05:53:11 62° NE 05:56:59 10° SE
STARLINK-60 3.4 05:54:11 17° WNW 05:56:39 55° NNE 05:59:58 10° E
FALCON 9 DEB 3.6 05:54:43 16° WNW 05:57:17 51° N 06:00:44 10° E
Helios 1A Rocket 3.3 05:53:34 10° N 05:57:26 41° WNW 06:01:19 10° SW
Cosmos 2278 Rocket 4.4 05:55:12 10° N 05:58:29 15° NNE 06:01:46 10° ENE
Cosmos 2366 rocket 4.1 05:53:05 10° NNW 05:59:20 63° W 06:05:35 10° S
Cosmos 1470 4.4 05:57:36 10° WSW 06:00:03 16° WNW 06:02:30 10° NNW
Cosmos 2058 Rocket 3.0 05:55:52 10° SSW 06:00:17 77° W 06:04:42 10° N
CORIOLIS 4.2 06:01:12 10° NNE 06:06:35 89° WNW 06:11:56 10° SSW
STARLINK-29 3.6 06:03:50 13° WNW 06:06:49 51° N 06:10:16 10° E
STARLINK-52 3.6 06:03:58 13° WNW 06:06:55 50° N 06:10:21 10° E
Cosmos 2344 3.8 05:59:45 10° WSW 06:07:07 56° NW 06:15:44 10° NE
BREEZE M DEB (TANK) 3.6 06:05:14 10° WSW 06:08:07 63° SSE 06:15:40 10° ENE
Cosmos 1328 4.4 06:05:20 10° NNW 06:09:00 35° W 06:12:38 10° SSW
Cosmos 1624 Rocket 4.0 06:04:32 10° NNW 06:09:49 88° WSW 06:15:01 10° SSE
ALOS 3.6 06:07:46 10° NNW 06:10:58 19° WNW 06:14:10 10° WSW
CENTAUR R/B 3.3 06:04:06 10° NW 06:12:00 66° SW 06:20:34 10° SSE
Cosmos 2322 Rocket 3.1 06:07:52 10° S 06:13:24 56° ESE 06:18:58 10° NE
Cosmos 158 Rocket 4.3 06:10:42 10° S 06:15:31 67° ESE 06:20:25 10° NNE
ATLAS 2AS CENTAUR R/B 3.2 06:09:15 10° SW 06:17:16 86° SE 06:25:16 10° NE
NOAA 12 4.1 06:12:48 10° NNE 06:18:07 86° WNW 06:23:25 10° SSW
Elektron 3 4.2 06:15:36 10° SW 06:20:39 68° NW 06:23:41 10° NE
COSMOS 2455 2.9 06:16:05 10° SW 06:22:01 60° NW 06:28:01 10° NNE
IRS-1C Rocket 4.1 06:16:57 10° N 06:22:10 62° WNW 06:27:21 10° SSW
ADEOS Rocket 3.5 06:18:05 10° SSW 06:22:54 31° W 06:27:51 10° NNW
AQUARIUS 4.4 06:19:08 10° N 06:23:29 48° WNW 06:27:48 10° SW
Cosmos 2056 Rocket 3.6 06:18:24 10° NNW 06:23:49 72° WSW 06:29:13 10° SSE
Cosmos 2181 Rocket 4.4 06:20:34 10° SW 06:26:21 40° WNW 06:32:15 10° N
Cosmos 2263 Rocket 2.7 06:22:27 10° NW 06:27:44 42° WSW 06:33:00 10° S
STARLINK-71 4.4 06:24:37 10° SW 06:28:32 53° SSE 06:32:29 10° ENE
Cosmos 1726 Rocket 4.5 06:25:52 10° SW 06:29:44 28° WNW 06:33:36 10° N
Cosmos 923 Rocket 4.2 06:24:54 10° SW 06:30:01 51° WNW 06:35:13 10° NNE
